Location: Les Salelles
(44.4192°N, 4.1044°E)
Time: 12:05:09
(UTC+00:00)

Cosmos 489 Rocket - Pass Details

Date: 20 January 2021
Orbit: 952 x 983 km, 74.0° (Epoch: 07 March)

Event Time Altitude Azimuth Distance (km) Brightness Sun altitude
Rises 18:27:38 0° 338° (NNW) 3,700 7.7 -19.6°
Reaches altitude 10° 18:30:12 10° 339° (NNW) 2,747 7.0 -20.0°
Maximum altitude 18:36:35 88° 255° (WSW) 987 4.5 -21.1°
Drops below altitude 10° 18:42:54 10° 162° (SSE) 2,717 6.7 -22.3°
Sets 18:45:25 0° 162° (SSE) 3,656 7.4 -22.7°
